AirNav   BOSE A20 Aviation Headset
 
 303 users online  

C27 Manchester Municipal Airport
Manchester, Iowa, USA

GOING TO MANCHESTER?


FAA INFORMATION EFFECTIVE 26 APRIL 2018

Location

FAA Identifier: C27
Lat/Long: 42-29-25.7850N / 091-29-52.3450W
42-29.429750N / 091-29.872417W
42.4904958 / -91.4978736
(estimated)
Elevation: 987 ft. / 300.8 m (surveyed)
Variation: 02E (1985)
From city: 2 miles W of MANCHESTER, IA
Time zone: UTC -5 (UTC -6 during Standard Time)
Zip code: 52057

Airport Operations

Airport use: Open to the public
Activation date: 12/1963
Control tower: no
ARTCC: CHICAGO CENTER
FSS: FORT DODGE FLIGHT SERVICE STATION
NOTAMs facility: FOD (NOTAM-D service available)
Attendance: ON CALL
Wind indicator: lighted
Segmented circle: no
Beacon: white-green (lighted land airport)
Operates sunset to sunrise.

Airport Communications

CTAF: 122.9

Nearby radio navigation aids

VOR radial/distance  VOR name  Freq  Var
DBQr275/35.3DUBUQUE VORTAC115.8004E
CIDr014/38.4CEDAR RAPIDS VOR/DME114.1005E

 
NDB name  Hdg/Dist  Freq  Var  ID
WAPSIE084/20.220600EIIB .. .. -...

Airport Services

Fuel available: 100LL
Parking: tiedowns
Airframe service: NONE
Powerplant service: NONE

Runway Information

Runway 18/36

Dimensions: 3465 x 50 ft. / 1056 x 15 m
EXTENDED 190' RWY 18 END
Surface: asphalt, in good condition
Runway edge lights: low intensity
RUNWAY 18  RUNWAY 36
Latitude: 42-29.715167N42-29.144333N
Longitude: 091-29.873500W091-29.871333W
Elevation: 948.0 ft.948.0 ft.
Traffic pattern: leftleft
Displaced threshold: no305 ft.
Markings: basic, in good conditionbasic, in good condition
Obstructions: 20 ft. tree, 1033 ft. from runway, 63 ft. right of centerline, 41:1 slope to clear28 ft. bldg, 295 ft. from runway, 95 ft. right of centerline, 3:1 slope to clear
RWY 36 APCH SLOPE 21:1 TO DSPLCD THLD.

Airport Ownership and Management from official FAA records

Ownership: Publicly-owned
Owner: CITY OF MANCHESTER
208 E MAIN STREET
MANCHESTER, IA 52057
Phone 563-927-3636
Manager: TIM VICK
208 E MAIN STREET
MANCHESTER, IA 52057
Phone 563-927-3636
563-920-0867 CELL OR 563-927-3355 POLICE.

Airport Operational Statistics

Aircraft based on the field: 19
Single engine airplanes: 13
Helicopters: 1
Ultralights: 5
    
Aircraft operations: avg 21/week *
61% transient general aviation
39% local general aviation
* for 12-month period ending 31 July 2017

Additional Remarks

ULTRALIGHT ACTIVITY IN VICINITY OF ARPT.
DEER ON & INVOF ARPT.

Instrument Procedures

There are no published instrument procedures at C27.

Some nearby airports with instrument procedures:

KIIB - Independence Municipal Airport (20 nm W)
KMXO - Monticello Regional Airport (22 nm SE)
KOLZ - Oelwein Municipal Airport (24 nm NW)
KVTI - Vinton Veterans Memorial Airpark (29 nm SW)
3Y2 - George L Scott Municipal Airport (32 nm NW)
 
Loc | Ops | Rwys | IFR | FBO | Links
Com | Nav | Svcs | Stats | Notes

AirNav Hotels Sweepstakes
 
Area around C27 (Manchester Municipal Airport)
 
Road maps at: MapQuest Bing Google
 
Aerial photo
WARNING: Photo may not be current or correct
Aerial photo of C27 (Manchester Municipal Airport)
Do you have a better or more recent aerial photo of Manchester Municipal Airport that you would like to share? If so, please send us your photo.

 
Sectional chart

 
Airport distance calculator
Flying to Manchester Municipal Airport? Find the distance to fly.

From to C27

Sunrise and sunset
Times for 22-May-2018
 Local
(UTC-5)
 Zulu
(UTC)
Morning civil twilight05:0610:06
Sunrise05:3910:39
Sunset20:2701:27
Evening civil twilight21:0002:00

Current date and time
Zulu (UTC)  22-May-2018 08:10:08
Local (UTC-5)  22-May-2018 03:10:08
 
METAR
KIIB 
20nm W 
220755Z AUTO 00000KT 3SM BR OVC010 15/14 A3000 RMK AO2 T01450141
KMXO 
22nm SE 
220755Z AUTO 00000KT 10SM BKN011 15/15 A2999 RMK AO2
KOLZ 
23nm NW 
220755Z AUTO 24004KT 10SM BKN012 14/14 A3001 RMK AO2
KVTI 
29nm SW 
220755Z AUTO 00000KT 1/4SM FG OVC001 13/13 A3000 RMK AO2 T01320130
KDBQ 
36nm E 
220802Z AUTO 26006KT 3/4SM R36/5500VP6000FT BR VV002 15/14 A3000 RMK AO2 T01500144
KPDC 
36nm NE 
220755Z AUTO 00000KT 4SM BR OVC003 15/14 A2999 RMK AO2 T01500142
KCID 
38nm S 
220804Z AUTO 00000KT 3SM BR SCT055 14/14 A2999 RMK AO2 T01390139
KALO 
40nm W 
220754Z AUTO 00000KT 5SM BR OVC012 15/15 A3000 RMK AO2 SLP158 T01500150
TAF
KDBQ 
36nm E 
220520Z 2206/2306 33003KT 1SM BR OVC003 TEMPO 2207/2211 VRB02KT 1/2SM FG VV002 FM221400 34005KT 5SM BR BKN012 FM221700 35007KT P6SM BKN030 FM230000 03003KT P6SM SCT050
KCID 
38nm S 
220520Z 2206/2306 33005KT 4SM BR BKN012 FM220900 33005KT 2SM BR BKN009 FM221400 33004KT P6SM SCT030 FM230000 12003KT P6SM SCT250
KALO 
40nm W 
220538Z 2206/2306 00000KT 3SM BR BKN012 BKN050 FM220800 00000KT 3SM BR BKN008 FM221100 00000KT 2SM BR BKN004 FM221300 VRB03KT 4SM BR BKN011 FM221400 VRB03KT P6SM BKN012 FM221700 VRB03KT P6SM BKN035
NOTAMs
Click for the latest NOTAMs
NOTAMs are issued by the DoD/FAA and will open in a separate window not controlled by AirNav.

 

 
 

FBO, Fuel Providers, and Aircraft Ground Support

  
 Business Name 
 
 Contact 
 
 Services / Description 
 
Fuel Prices
 
Comments
  
Manchester Municipal Airport 563-927-3636
no information available

If you are affiliated with Manchester Municipal Airport and would like to show here your services, contact info, web link, logo, and more, click here
100LL
SS $4.58 
 Updated 21-May-2018
 
   write
SS=Self service
Update Fuel Prices
 

Would you like to see your business listed on this page?

 If your business provides an interesting product or service to pilots, flight crews, aircraft, or users of the Manchester Municipal Airport, you should consider listing it here.  To start the listing process, click on the button below
 
Add a business
 

Other Pages about Manchester Municipal Airport

www.manchester-ia.org/index.asp?Type=B_BASIC&SEC={E5D83828-A509-4E02-AAD5-ECE7F706B512}
Page from the Iowa Airport Directory
 
Update a link
 
Copyright © AirNav, LLC. All rights reserved. Privacy Policy  Contact